Location: Ida Center
(41.8662°N, 83.5713°W)
Time: 06:08:13
(UTC+00:00)

Okean O Rocket - Pass Details

Date: 17 November 2019
Orbit: 622 x 646 km, 98.2° (Epoch: 06 December)

Event Time Altitude Azimuth Distance (km) Brightness Sun altitude
Rises 23:07:24 0° 198° (SSW) 2,922 5.5 -10.5°
Reaches altitude 10° 23:09:59 10° 213° (SSW) 2,014 4.9 -10.9°
Maximum altitude 23:13:27 23° 265° (W) 1,357 4.4 -11.6°
Drops below altitude 10° 23:16:56 10° 318° (NW) 2,015 4.6 -12.2°
Sets 23:19:32 0° 333° (NNW) 2,924 5.2 -12.7°
